Greenwich, CT

4:49 AM EST on February 25, 2017 (GMT -0500)
Westchester County

Weather History for KHPN - March, 2012

Change the Weather History Date:

Saturday, March 10, 2012

  Actual Average Record
Temperature  
Mean Temperature 34 °F -  
Max Temperature 41 °F 41 °F 75 °F (2016)
Min Temperature 27 °F 26 °F 8 °F (1984)
Degree Days  
Heating Degree Days 31    
Moisture  
Dew Point 13 °F    
Average Humidity 45    
Maximum Humidity 66    
Minimum Humidity 32    
Precipitation  
Precipitation 0.00 in - - ()
Sea Level Pressure  
Sea Level Pressure 30.44 in    
Wind  
Wind Speed 13 mph (NW)    
Max Wind Speed 20 mph    
Max Gust Speed 30 mph    
Visibility 10 miles    
Events      
Averages and records for this station are not official NWS values.
T = Trace of Precipitation, MM = Missing Value Source: NWS Daily Summary

Daily Weather History Graph

Daily Weather History Graph

Search for Another Location

Airport or City:

Trip Planner

Search our weather history database for the weather conditions in past years. The results will help you decide how hot, cold, wet, or windy it might be!

Date:

Astronomy

Mar. 10, 2012 Rise Set
Actual Time 6:13 AM EST 5:56 PM EST
Civil Twilight 5:46 AM EST 6:23 PM EST
Nautical Twilight 5:14 AM EST 6:55 PM EST
Astronomical Twilight 4:42 AM EST 7:28 PM EST
Moon 9:08 PM EST (3/10) 7:05 AM EST (3/10)
Length of Visible Light 12h 37m
Length of Day
11h 42m
Waning Gibbous, 93% of the Moon is Illuminated
Mar 10
Waning Gibbous
Mar 14
Last Quarter
Mar 22
New
Mar 30
First Quarter
Apr 6
Full

Hourly Weather History & Observations

Time (EST) Temp. Windchill Dew Point Humidity Pressure Visibility Wind Dir Wind Speed Gust Speed Precip Events Conditions
12:56 AM 32.0 °F 20.8 °F 15.1 °F 50% 30.27 in 10.0 mi NW 17.3 mph 28.8 mph N/A   Partly Cloudy
1:56 AM 30.9 °F 19.1 °F 9.0 °F 40% 30.29 in 10.0 mi NW 18.4 mph 26.5 mph N/A   Mostly Cloudy
2:56 AM 30.0 °F 17.5 °F 8.1 °F 40% 30.30 in 10.0 mi WNW 19.6 mph 29.9 mph N/A   Partly Cloudy
3:56 AM 28.9 °F 18.2 °F 8.1 °F 41% 30.32 in 10.0 mi NW 13.8 mph 25.3 mph N/A   Mostly Cloudy
4:56 AM 28.0 °F 16.1 °F 12.0 °F 51% 30.35 in 10.0 mi WNW 16.1 mph 25.3 mph N/A   Scattered Clouds
5:56 AM 27.0 °F 15.2 °F 10.0 °F 49% 30.37 in 10.0 mi NW 15.0 mph 26.5 mph N/A   Scattered Clouds
6:56 AM 28.0 °F 15.3 °F 10.9 °F 49% 30.41 in 10.0 mi WNW 18.4 mph 25.3 mph N/A   Scattered Clouds
7:56 AM 28.9 °F 16.5 °F 10.9 °F 47% 30.43 in 10.0 mi WNW 18.4 mph 24.2 mph N/A   Partly Cloudy
8:56 AM 30.9 °F 19.4 °F 10.9 °F 43% 30.46 in 10.0 mi NNW 17.3 mph 21.9 mph N/A   Partly Cloudy
9:56 AM 33.1 °F 22.6 °F 12.0 °F 42% 30.47 in 10.0 mi WNW 16.1 mph 21.9 mph N/A   Partly Cloudy
10:56 AM 36.0 °F 26.3 °F 12.0 °F 37% 30.48 in 10.0 mi NW 16.1 mph 24.2 mph N/A   Partly Cloudy
11:56 AM 37.0 °F 29.3 °F 12.0 °F 36% 30.49 in 10.0 mi WNW 11.5 mph 25.3 mph N/A   Clear
12:56 PM 37.9 °F 30.5 °F 12.0 °F 35% 30.48 in 10.0 mi NW 11.5 mph 19.6 mph N/A   Clear
1:56 PM 39.9 °F 35.8 °F 12.9 °F 33% 30.47 in 10.0 mi NW 5.8 mph 16.1 mph N/A   Clear
2:56 PM 41.0 °F 34.7 °F 12.9 °F 32% 30.46 in 10.0 mi WNW 10.4 mph - N/A   Clear
3:56 PM 39.9 °F 36.7 °F 12.0 °F 32% 30.46 in 10.0 mi NNE 4.6 mph - N/A   Clear
4:56 PM 39.0 °F 36.8 °F 12.0 °F 33% 30.48 in 10.0 mi West 3.5 mph - N/A   Clear
5:56 PM 37.0 °F 32.4 °F 12.9 °F 37% 30.51 in 10.0 mi WNW 5.8 mph - N/A   Clear
6:56 PM 33.1 °F - 16.0 °F 50% 30.51 in 10.0 mi Calm Calm - N/A   Clear
7:56 PM 33.1 °F - 15.1 °F 48% 30.52 in 10.0 mi Calm Calm - N/A   Clear
8:56 PM 32.0 °F - 16.0 °F 52% 30.53 in 10.0 mi Calm Calm - N/A   Clear
9:56 PM 30.9 °F - 19.9 °F 64% 30.53 in 10.0 mi Calm Calm - N/A   Clear
10:56 PM 30.0 °F - 19.9 °F 66% 30.53 in 10.0 mi Calm Calm - N/A   Clear
11:56 PM 30.0 °F - 19.0 °F 64% 30.51 in 10.0 mi Calm Calm - N/A   Clear